Regional Weather Roundup
Issued by NWS

Home | Current Version | Previous Version | Text Only | Print | Product List | Glossary Off
Versions: 1 2 3 4 5 6 7 8 9 10 11 12 13 14 15 16 17 18 19 20 21 22 23 24 25 26 27 28 29 30 31 32 33 34 35 36 37 38 39 40 41 42 43 44 45 46 47 48 49 50

000
ASUS45 KBOU 301407
RWRCO

WEATHER ROUNDUP FOR COLORADO
NATIONAL WEATHER SERVICE DENVER/BOULDER CO
800 AM MDT THU MAR 30 2017

NOTE: "FAIR" INDICATES FEW OR NO CLOUDS BELOW 12000 FEET WITH NO
SIGNIFICANT WEATHER AND/OR OBSTRUCTIONS TO VISIBILITY.

COZ001>005-013-030-031-301500-
...NORTHWEST COLORADO...

CITY           SKY/WX    TMP DP  RH WIND       PRES   REMARKS
CRAIG          CLOUDY    35  30  82 SW5       29.92F WCI  31
HAYDEN         CLOUDY    36  25  64 E9        29.92F
MEEKER         CLOUDY    36  31  82 N3        29.93F
MOUNT WERNER   NOT AVBL
STEAMBOAT SPGS CLOUDY    33  28  85 CALM      29.94S
WALDEN         NOT AVBL
$$

COZ006>008-011-301500-
...WEST CENTRAL VALLEYS...

CITY           SKY/WX    TMP DP  RH WIND       PRES   REMARKS
GRAND JUNCTION PTSUNNY   43  29  57 SE14      29.92F
MONTROSE       FAIR      34  27  75 W5        30.00R WCI  30
EAGLE          MOSUNNY   34  27  75 CALM      30.00S
RIFLE          CLOUDY    35  28  75 CALM      29.96S
DELTA          FAIR      39  28  64 CALM      29.97S
NUCLA          FAIR      36  27  69 CALM      30.02S
$$

COZ017>023-064>068-301500-
...SOUTHWEST COLORADO...

CITY           SKY/WX    TMP DP  RH WIND       PRES   REMARKS
DURANGO        FAIR      31  19  61 NE6       30.01R WCI  25
CORTEZ         FAIR      31  25  78 SE3       30.00S
PAGOSA SPRINGS FAIR      30  22  69 CALM      30.02S
TELLURIDE      NOT AVBL
WOLF CREEK PAS FAIR      27   3  36 SW8       30.14S WCI  18
$$

COZ009-010-012-014-032>034-037-058>063-301500-
...CENTRAL COLORADO...

CITY           SKY/WX    TMP DP  RH WIND       PRES   REMARKS
ASPEN          PTSUNNY   33  25  72 CALM      29.96F
BUENA VISTA    FAIR      40  20  44 NW12      29.96F
COPPER MTN     CLOUDY    27  19  74 MISG      30.05F
BERTHOUD PASS  CLOUDY    19   9  63 W17G28    30.03S WCI   4
COTTONWOOD PAS FAIR      34  21  60 NW6       30.00S WCI  29
GUNNISON       FAIR      28  23  81 CALM      30.04S
KREMMLING      FAIR      36  30  80 CALM      29.98F
LEADVILLE      FAIR      26  18  71 NE9       29.99F WCI  17
MONARCH PASS   FAIR      21  18  86 W23       30.15F WCI   5
SALIDA         FAIR      40  21  46 N6        30.02F
SUNLIGHT       CLOUDY    27  19  74 SW12G18   30.07S HAZE    WCI  16
WILKERSON PASS FAIR      27  19  74 W13G23    30.02F WCI  16
$$

COZ069>075-301500-
...SAN LUIS VALLEY/SANGRE DE CRISTO MOUNTAINS...

CITY           SKY/WX    TMP DP  RH WIND       PRES   REMARKS
ALAMOSA        FAIR      26  23  88 S3        30.00F
LA VETA PASS   NOT AVBL
SAGUACHE       FAIR      37  19  48 NW7       30.00F
$$

COZ035-036-038>040-301500-
...NORTHERN COLORADO FRONT RANGE...

CITY           SKY/WX    TMP DP  RH WIND       PRES   REMARKS
DENVER INTL AP PTSUNNY   40  29  64 SW10      29.81F
DMNS CITY PARK   N/A     42  27  55 SE6       29.82S
AURORA         PTSUNNY   40  29  64 S6        29.82F
FRONT RANGE AP PTSUNNY   45  30  57 SE12G22   29.82
ERIE MUNI ARPT FAIR      34  33  94 CALM      29.82R
BOULDER MUN AP FAIR      37  34  87 SE7       29.80F
CENTENNIAL     PTSUNNY   42  29  59 S8        29.83S
BROOMFIELD     PTSUNNY   37  36  93 SW6       29.82F
FORT COLLINS   FAIR      35  34  96 CALM      29.81F
LONGMONT       FAIR      37  33  85 CALM      29.83F
$$

COZ041-046-047-076>085-087-088-301500-
...PIKES PEAK/PALMER DIVIDE AND SOUTHERN FOOTHILLS...

CITY           SKY/WX    TMP DP  RH WIND       PRES   REMARKS
COLO. SPRINGS  PTSUNNY   44  25  47 N7        29.86S
A. F. ACADEMY  SUNNY     42  24  48 NE5       29.86S
SCHRIEVER AFB  FAIR      45  23  42 NW14G21   29.86S
ELLICOTT       FAIR     N/A N/A N/A CALM      29.84S
FALCON         FAIR      43  22  42 NW12      29.88S
FORT CARSON    FAIR      42  24  50 SW6       29.85S
LIMON          FAIR      34  31  88 N8        29.83S WCI  27
MONUMENT HILL  FAIR      36  25  64 SW9       29.88S
TRINIDAD       FAIR      35  29  78 W9        29.88R WCI  28
$$

COZ042>045-048>051-090-091-301500-
...NORTHEAST COLORADO...

CITY           SKY/WX    TMP DP  RH WIND       PRES   REMARKS
GREELEY ARPT   FAIR      32  31  96 CALM      29.82F
AKRON          FAIR      36  32  85 W10       29.80F
BURLINGTON     FAIR      39  35  86 NW5       29.81S
WRAY           NOT AVBL
STERLING       FAIR      32  32 100 S5        29.80S WCI  27
HOLYOKE        FOG       34  32  93 E6        29.83R VSB 1/4 WCI  29
FORT MORGAN    FAIR      32  31  95 W5        29.81F WCI  27
$$

COZ086-089-092>099-301500-
...SOUTHEAST COLORADO...

CITY           SKY/WX    TMP DP  RH WIND       PRES   REMARKS
PUEBLO         FAIR      36  32  85 W8        29.84S
LA JUNTA       FAIR      37  33  85 SW8       29.83S
LAMAR          FAIR      39  35  86 W6        29.81S
SPRINGFIELD      N/A     44  36  73 W12       29.82R
$$



USA.gov is the U.S. government's official web portal to all federal, state and local government web resources and services.